Location: Newark
(48.1500°N, 2.9667°W)
Time: 14:58:53
(UTC+00:00)

Transit 2A - Pass Details

Date: 01 February 2020
Orbit: 600 x 959 km, 66.7° (Epoch: 22 February)

Event Time Altitude Azimuth Distance (km) Brightness Sun altitude
Rises 20:44:05 0° 273° (W) 2,848 9.9 -35.5°
Reaches altitude 10° 20:47:21 10° 299° (WNW) 1,951 8.8 -36.1°
Enters shadow 20:48:41 13° 317° (NW) 1,759 8.4 -36.3°
Maximum altitude 20:49:39 14° 332° (NNW) 1,720 - -36.4°
Drops below altitude 10° 20:51:59 10° 4° (N) 1,988 - -36.8°
Sets 20:55:23 0° 30° (NNE) 2,944 - -37.4°
